| time (UTC) | temp F | wind direction | speed MPH | gust MPH | rain 1hr in | rain 24hr in | rain mn in | humidity % | barometer mb |
| 20260508054523 | 58 | 268 | 9.0 | 19.0 | 0.00 | 0.00 | 0.00 | 64 | 1018.1 |
| 20260508053533 | 58 | 267 | 9.0 | 17.0 | 0.00 | 0.00 | 0.00 | 63 | 1018.0 |
| 20260508052527 | 59 | 278 | 8.0 | 17.0 | 0.00 | 0.00 | 0.00 | 63 | 1018.0 |
| 20260508051538 | 58 | 276 | 7.0 | 15.0 | 0.00 | 0.00 | 0.00 | 63 | 1017.9 |
| 20260508050521 | 58 | 273 | 10.0 | 17.0 | 0.00 | 0.00 | 0.00 | 63 | 1017.9 |
| 20260508045528 | 58 | 269 | 9.0 | 17.0 | 0.00 | 0.00 | 0.00 | 63 | 1017.9 |
| 20260508044518 | 59 | 283 | 10.0 | 22.0 | 0.00 | 0.00 | 0.00 | 63 | 1017.8 |
| 20260508043535 | 58 | 276 | 9.0 | 17.0 | 0.00 | 0.00 | 0.00 | 63 | 1017.6 |
| 20260508042543 | 58 | 281 | 11.0 | 20.0 | 0.00 | 0.00 | 0.00 | 62 | 1017.7 |
| 20260508041525 | 59 | 286 | 10.0 | 19.0 | 0.00 | 0.00 | 0.00 | 62 | 1017.5 |
| 20260508040535 | 58 | 269 | 9.0 | 21.0 | 0.00 | 0.00 | 0.00 | 63 | 1017.4 |
| 20260508035525 | 58 | 274 | 10.0 | 21.0 | 0.00 | 0.00 | 0.00 | 64 | 1017.2 |
| 20260508034533 | 57 | 270 | 10.0 | 21.0 | 0.00 | 0.00 | 0.00 | 65 | 1017.2 |
| 20260508033522 | 58 | 274 | 10.0 | 19.0 | 0.00 | 0.00 | 0.00 | 64 | 1017.1 |
| 20260508032539 | 57 | 270 | 12.0 | 22.0 | 0.00 | 0.00 | 0.00 | 66 | 1017.3 |
| 20260508031522 | 57 | 291 | 12.0 | 22.0 | 0.00 | 0.00 | 0.00 | 65 | 1017.3 |
| 20260508030531 | 57 | 290 | 10.0 | 21.0 | 0.00 | 0.00 | 0.00 | 65 | 1017.6 |
| 20260508025520 | 58 | 313 | 10.0 | 19.0 | 0.00 | 0.00 | 0.00 | 65 | 1017.7 |
| 20260508024528 | 57 | 298 | 10.0 | 22.0 | 0.00 | 0.00 | 0.00 | 66 | 1017.8 |
| 20260508023517 | 57 | 298 | 9.0 | 17.0 | 0.00 | 0.00 | 0.00 | 67 | 1017.7 |
| 20260508022526 | 57 | 294 | 10.0 | 20.0 | 0.00 | 0.00 | 0.00 | 67 | 1017.7 |
| 20260508021536 | 56 | 289 | 12.0 | 23.0 | 0.00 | 0.00 | 0.00 | 69 | 1017.8 |
| 20260508020525 | 55 | 288 | 15.0 | 22.0 | 0.00 | 0.00 | 0.00 | 69 | 1017.9 |
| 20260508015542 | 55 | 297 | 14.0 | 24.0 | 0.00 | 0.00 | 0.00 | 71 | 1017.9 |
| 20260508014524 | 55 | 292 | 15.0 | 27.0 | 0.00 | 0.00 | 0.00 | 70 | 1018.0 |
| 20260508013532 | 54 | 291 | 14.0 | 28.0 | 0.00 | 0.00 | 0.00 | 72 | 1018.2 |
| 20260508012521 | 54 | 299 | 15.0 | 22.0 | 0.00 | 0.00 | 0.00 | 72 | 1018.4 |
| 20260508011531 | 54 | 303 | 13.0 | 21.0 | 0.00 | 0.00 | 0.00 | 73 | 1018.6 |
| 20260508010520 | 53 | 304 | 12.0 | 22.0 | 0.00 | 0.00 | 0.00 | 75 | 1018.7 |
| 20260508005530 | 53 | 299 | 12.0 | 23.0 | 0.00 | 0.00 | 0.00 | 75 | 1018.7 |
| 20260508004519 | 53 | 304 | 12.0 | 22.0 | 0.00 | 0.00 | 0.00 | 76 | 1018.7 |
| 20260508003528 | 52 | 298 | 13.0 | 21.0 | 0.00 | 0.00 | 0.00 | 77 | 1018.8 |
| 20260508002525 | 52 | 308 | 14.0 | 24.0 | 0.00 | 0.00 | 0.00 | 78 | 1018.6 |
| 20260508001527 | 51 | 309 | 13.0 | 22.0 | 0.00 | 0.00 | 0.00 | 78 | 1018.8 |
| 20260508000536 | 50 | 318 | 11.0 | 20.0 | 0.00 | 0.00 | 0.00 | 79 | 1019.0 |
| 20260507235525 | 51 | 327 | 12.0 | 22.0 | 0.00 | 0.00 | 0.00 | 79 | 1019.2 |
| 20260507234535 | 51 | 329 | 12.0 | 21.0 | 0.00 | 0.00 | 0.00 | 78 | 1019.2 |
| 20260507233530 | 50 | 334 | 11.0 | 19.0 | 0.00 | 0.00 | 0.00 | 79 | 1019.0 |
| 20260507232531 | 51 | 346 | 8.0 | 17.0 | 0.00 | 0.00 | 0.00 | 78 | 1019.0 |
| 20260507231521 | 51 | 344 | 9.0 | 20.0 | 0.00 | 0.00 | 0.00 | 78 | 1019.0 |
| 20260507230530 | 51 | 352 | 7.0 | 14.0 | 0.00 | 0.00 | 0.00 | 77 | 1018.9 |
| 20260507225519 | 52 | 343 | 7.0 | 14.0 | 0.00 | 0.00 | 0.00 | 75 | 1018.8 |
| 20260507224529 | 51 | 326 | 7.0 | 11.0 | 0.00 | 0.00 | 0.00 | 75 | 1018.6 |
| 20260507223532 | 51 | 326 | 8.0 | 14.0 | 0.00 | 0.00 | 0.00 | 75 | 1018.4 |
| 20260507222526 | 51 | 339 | 7.0 | 12.0 | 0.00 | 0.00 | 0.00 | 76 | 1018.4 |
| 20260507221535 | 51 | 9 | 5.0 | 9.0 | 0.00 | 0.00 | 0.00 | 78 | 1018.0 |
| 20260507220533 | 50 | 15 | 7.0 | 14.0 | 0.00 | 0.00 | 0.00 | 79 | 1018.0 |
| 20260507215534 | 49 | 18 | 6.0 | 13.0 | 0.00 | 0.00 | 0.00 | 81 | 1017.8 |
| 20260507214523 | 48 | 23 | 7.0 | 16.0 | 0.00 | 0.00 | 0.00 | 85 | 1017.7 |
| 20260507213533 | 47 | 14 | 7.0 | 17.0 | 0.00 | 0.00 | 0.00 | 86 | 1017.7 |
| 20260507212522 | 47 | 24 | 8.0 | 13.0 | 0.00 | 0.00 | 0.00 | 86 | 1017.8 |
| 20260507211531 | 47 | 22 | 7.0 | 16.0 | 0.00 | 0.00 | 0.00 | 86 | 1017.8 |
| 20260507210527 | 47 | 24 | 7.0 | 15.0 | 0.00 | 0.00 | 0.00 | 86 | 1017.8 |
| 20260507205533 | 47 | 3 | 6.0 | 11.0 | 0.00 | 0.00 | 0.00 | 86 | 1017.6 |
| 20260507204519 | 47 | 4 | 7.0 | 13.0 | 0.00 | 0.00 | 0.00 | 85 | 1017.8 |
| 20260507203528 | 47 | 15 | 7.0 | 13.0 | 0.00 | 0.00 | 0.00 | 86 | 1017.8 |
| 20260507202516 | 47 | 10 | 6.0 | 11.0 | 0.00 | 0.00 | 0.00 | 85 | 1017.8 |
| 20260507201526 | 46 | 359 | 5.0 | 9.0 | 0.00 | 0.00 | 0.00 | 86 | 1017.6 |
| 20260507200536 | 46 | 349 | 7.0 | 14.0 | 0.00 | 0.00 | 0.00 | 85 | 1017.5 |
| 20260507195525 | 47 | 346 | 8.0 | 16.0 | 0.00 | 0.00 | 0.00 | 84 | 1017.4 |
| 20260507194535 | 47 | 335 | 9.0 | 13.0 | 0.00 | 0.00 | 0.00 | 83 | 1017.5 |
| 20260507193523 | 47 | 329 | 10.0 | 16.0 | 0.00 | 0.00 | 0.00 | 82 | 1017.5 |
| 20260507192540 | 47 | 311 | 10.0 | 16.0 | 0.00 | 0.00 | 0.00 | 80 | 1017.5 |
| 20260507191522 | 47 | 297 | 9.0 | 14.0 | 0.00 | 0.00 | 0.00 | 80 | 1017.3 |
| 20260507190531 | 48 | 289 | 9.0 | 16.0 | 0.00 | 0.00 | 0.00 | 77 | 1017.4 |
| 20260507185528 | 49 | 289 | 8.0 | 15.0 | 0.00 | 0.00 | 0.00 | 75 | 1017.3 |
| 20260507184530 | 49 | 276 | 7.0 | 12.0 | 0.00 | 0.00 | 0.00 | 75 | 1017.3 |
| 20260507183518 | 49 | 273 | 7.0 | 14.0 | 0.00 | 0.00 | 0.00 | 75 | 1017.2 |
| 20260507182528 | 49 | 290 | 8.0 | 14.0 | 0.00 | 0.00 | 0.00 | 74 | 1017.3 |
| 20260507181517 | 48 | 302 | 7.0 | 14.0 | 0.00 | 0.00 | 0.00 | 76 | 1017.4 |
| 20260507180526 | 47 | 326 | 4.0 | 7.0 | 0.00 | 0.00 | 0.00 | 80 | 1017.2 |
| 20260507175550 | 47 | 0 | 5.0 | 11.0 | 0.00 | 0.00 | 0.00 | 80 | 1017.2 |
| 20260507174524 | 48 | 349 | 4.0 | 6.0 | 0.00 | 0.00 | 0.00 | 78 | 1017.6 |
| 20260507173534 | 48 | 349 | 5.0 | 7.0 | 0.00 | 0.00 | 0.00 | 76 | 1017.5 |
| 20260507172530 | 48 | 332 | 6.0 | 11.0 | 0.00 | 0.00 | 0.00 | 75 | 1017.4 |
| 20260507171532 | 48 | 336 | 5.0 | 9.0 | 0.00 | 0.00 | 0.00 | 74 | 1017.6 |
| 20260507170527 | 48 | 344 | 5.0 | 7.0 | 0.00 | 0.00 | 0.00 | 73 | 1017.5 |
| 20260507165530 | 48 | 327 | 5.0 | 10.0 | 0.00 | 0.00 | 0.00 | 72 | 1017.6 |
| 20260507164519 | 48 | 306 | 5.0 | 10.0 | 0.00 | 0.00 | 0.00 | 71 | 1017.7 |
| 20260507163528 | 48 | 323 | 5.0 | 11.0 | 0.00 | 0.00 | 0.00 | 71 | 1017.7 |
| 20260507162518 | 48 | 304 | 8.0 | 13.0 | 0.00 | 0.00 | 0.00 | 71 | 1017.9 |
| 20260507161528 | 47 | 295 | 9.0 | 16.0 | 0.00 | 0.00 | 0.00 | 70 | 1017.6 |
| 20260507160516 | 48 | 305 | 7.0 | 14.0 | 0.00 | 0.00 | 0.00 | 68 | 1017.8 |
| 20260507155525 | 47 | 300 | 6.0 | 11.0 | 0.00 | 0.00 | 0.00 | 71 | 1017.7 |
| 20260507154535 | 46 | 8 | 5.0 | 9.0 | 0.00 | 0.00 | 0.00 | 72 | 1017.7 |
| 20260507153524 | 47 | 18 | 3.0 | 5.0 | 0.00 | 0.00 | 0.00 | 69 | 1017.9 |
| 20260507152534 | 48 | 305 | 5.0 | 9.0 | 0.00 | 0.00 | 0.00 | 68 | 1017.9 |
| 20260507151522 | 48 | 288 | 4.0 | 11.0 | 0.00 | 0.00 | 0.00 | 68 | 1018.1 |
| 20260507150533 | 48 | 280 | 6.0 | 13.0 | 0.00 | 0.00 | 0.00 | 69 | 1018.1 |
| 20260507145521 | 47 | 299 | 4.0 | 8.0 | 0.00 | 0.00 | 0.00 | 69 | 1018.2 |
| 20260507144530 | 47 | 327 | 5.0 | 10.0 | 0.00 | 0.00 | 0.00 | 70 | 1018.0 |
| 20260507143519 | 47 | 285 | 5.0 | 9.0 | 0.00 | 0.00 | 0.00 | 70 | 1017.9 |
| 20260507142528 | 47 | 285 | 2.0 | 4.0 | 0.00 | 0.00 | 0.00 | 71 | 1018.3 |
| 20260507141517 | 47 | 351 | 4.0 | 8.0 | 0.00 | 0.00 | 0.00 | 70 | 1018.2 |
| 20260507140527 | 47 | 20 | 2.0 | 4.0 | 0.00 | 0.00 | 0.00 | 70 | 1018.5 |
| 20260507135536 | 47 | 321 | 4.0 | 7.0 | 0.00 | 0.00 | 0.00 | 69 | 1018.7 |
| 20260507134526 | 47 | 333 | 6.0 | 12.0 | 0.00 | 0.00 | 0.00 | 70 | 1018.9 |
| 20260507133541 | 46 | 325 | 4.0 | 9.0 | 0.00 | 0.00 | 0.00 | 71 | 1018.9 |
| 20260507132524 | 45 | 360 | 4.0 | 5.0 | 0.00 | 0.00 | 0.00 | 72 | 1018.9 |
| 20260507131534 | 45 | 7 | 3.0 | 6.0 | 0.00 | 0.00 | 0.00 | 71 | 1019.0 |
| 20260507130522 | 45 | 11 | 3.0 | 9.0 | 0.00 | 0.00 | 0.00 | 70 | 1019.1 |
| 20260507125531 | 45 | 3 | 4.0 | 6.0 | 0.00 | 0.00 | 0.00 | 69 | 1019.2 |
| 20260507124527 | 45 | 4 | 3.0 | 6.0 | 0.00 | 0.00 | 0.00 | 68 | 1019.4 |
| 20260507123530 | 46 | 332 | 4.0 | 6.0 | 0.00 | 0.00 | 0.00 | 67 | 1019.4 |
| 20260507122519 | 46 | 277 | 3.0 | 7.0 | 0.00 | 0.00 | 0.00 | 67 | 1019.6 |
| 20260507121528 | 45 | 312 | 3.0 | 6.0 | 0.00 | 0.00 | 0.00 | 68 | 1019.6 |
| 20260507120518 | 45 | 321 | 4.0 | 8.0 | 0.00 | 0.00 | 0.00 | 69 | 1019.6 |
| 20260507115527 | 46 | 336 | 4.0 | 7.0 | 0.00 | 0.00 | 0.00 | 67 | 1019.8 |
| 20260507114537 | 46 | 300 | 5.0 | 8.0 | 0.00 | 0.00 | 0.00 | 65 | 1019.6 |
| 20260507113525 | 46 | 274 | 4.0 | 9.0 | 0.00 | 0.00 | 0.00 | 65 | 1019.6 |
| 20260507112534 | 46 | 294 | 6.0 | 11.0 | 0.00 | 0.00 | 0.00 | 66 | 1019.8 |
| 20260507111524 | 46 | 305 | 5.0 | 9.0 | 0.00 | 0.00 | 0.00 | 67 | 1019.6 |
| 20260507110532 | 46 | 315 | 5.0 | 9.0 | 0.00 | 0.00 | 0.00 | 67 | 1019.7 |
| 20260507105522 | 46 | 308 | 4.0 | 8.0 | 0.00 | 0.00 | 0.00 | 67 | 1019.7 |
| 20260507104531 | 46 | 308 | 5.0 | 8.0 | 0.00 | 0.00 | 0.00 | 65 | 1019.5 |
| 20260507103528 | 46 | 313 | 5.0 | 10.0 | 0.00 | 0.00 | 0.00 | 67 | 1019.4 |
| 20260507102529 | 46 | 332 | 6.0 | 11.0 | 0.00 | 0.00 | 0.00 | 67 | 1019.4 |
| 20260507101518 | 47 | 336 | 5.0 | 8.0 | 0.00 | 0.00 | 0.00 | 66 | 1019.2 |
| 20260507100528 | 47 | 318 | 4.0 | 8.0 | 0.00 | 0.00 | 0.00 | 65 | 1019.2 |
| 20260507095531 | 47 | 308 | 4.0 | 9.0 | 0.00 | 0.00 | 0.00 | 64 | 1019.1 |
| 20260507094533 | 47 | 291 | 4.0 | 10.0 | 0.00 | 0.00 | 0.00 | 64 | 1019.1 |
| 20260507093535 | 47 | 298 | 5.0 | 11.0 | 0.00 | 0.00 | 0.00 | 64 | 1018.8 |
| 20260507092532 | 47 | 281 | 4.0 | 9.0 | 0.00 | 0.00 | 0.00 | 65 | 1018.9 |
| 20260507091533 | 47 | 270 | 3.0 | 7.0 | 0.00 | 0.00 | 0.00 | 65 | 1018.7 |
| 20260507090529 | 46 | 284 | 4.0 | 9.0 | 0.00 | 0.00 | 0.00 | 66 | 1018.6 |
| 20260507085531 | 47 | 284 | 4.0 | 9.0 | 0.00 | 0.00 | 0.00 | 66 | 1018.5 |
| 20260507084520 | 46 | 287 | 3.0 | 8.0 | 0.00 | 0.00 | 0.00 | 67 | 1018.6 |
| 20260507083529 | 47 | 269 | 1.0 | 3.0 | 0.00 | 0.00 | 0.00 | 66 | 1018.6 |
| 20260507082518 | 48 | 280 | 3.0 | 7.0 | 0.00 | 0.00 | 0.00 | 64 | 1018.5 |
| 20260507081527 | 48 | 281 | 5.0 | 11.0 | 0.00 | 0.00 | 0.00 | 62 | 1018.4 |
| 20260507080531 | 48 | 277 | 3.0 | 8.0 | 0.00 | 0.00 | 0.00 | 63 | 1018.2 |
| 20260507075526 | 48 | 282 | 4.0 | 7.0 | 0.00 | 0.00 | 0.00 | 63 | 1017.8 |
| 20260507074535 | 48 | 285 | 4.0 | 10.0 | 0.00 | 0.00 | 0.00 | 62 | 1017.7 |
| 20260507073524 | 48 | 279 | 4.0 | 9.0 | 0.00 | 0.00 | 0.00 | 62 | 1017.4 |
| 20260507072535 | 48 | 254 | 5.0 | 12.0 | 0.00 | 0.00 | 0.00 | 62 | 1017.4 |
| 20260507071523 | 48 | 262 | 4.0 | 10.0 | 0.00 | 0.00 | 0.00 | 62 | 1017.3 |
| 20260507070532 | 49 | 272 | 5.0 | 10.0 | 0.00 | 0.00 | 0.00 | 61 | 1017.2 |
| 20260507065521 | 50 | 272 | 5.0 | 12.0 | 0.00 | 0.00 | 0.00 | 59 | 1017.1 |
| 20260507064533 | 50 | 266 | 7.0 | 15.0 | 0.00 | 0.00 | 0.00 | 57 | 1016.9 |
| 20260507063519 | 51 | 274 | 9.0 | 16.0 | 0.00 | 0.00 | 0.00 | 56 | 1016.9 |
| 20260507062529 | 51 | 267 | 5.0 | 10.0 | 0.00 | 0.00 | 0.00 | 54 | 1016.7 |
| 20260507061525 | 51 | 276 | 5.0 | 9.0 | 0.00 | 0.00 | 0.00 | 53 | 1016.7 |
| 20260507060534 | 52 | 271 | 6.0 | 15.0 | 0.00 | 0.00 | 0.00 | 53 | 1016.5 |
| 20260507055517 | 52 | 262 | 6.0 | 14.0 | 0.00 | 0.00 | 0.00 | 53 | 1016.2 |